Previsão horária em Abanilla

Hoje, 29 Setembro, Terça-feira

Tempo Temperatura Precipitação Vento Pressão Humidade
00:00 +18°C° 0 mm 1 m/s 742 mmHg 77%
01:00 +18°C° 0 mm 1 m/s 742 mmHg 77%
02:00 +18°C° 0 mm 1 m/s 741 mmHg 78%
03:00 +18°C° 0 mm 1 m/s 741 mmHg 79%
04:00 +18°C° 0 mm 1 m/s 741 mmHg 80%
05:00 +16°C° 0 mm 1 m/s 741 mmHg 82%
06:00 +16°C° 0 mm 1 m/s 742 mmHg 85%
07:00 +19°C° 0 mm 1 m/s 742 mmHg 75%
08:00 +21°C° 0 mm 1 m/s 742 mmHg 66%
09:00 +23°C° 0 mm 2 m/s 742 mmHg 57%
10:00 +24°C° 0 mm 2 m/s 742 mmHg 50%
11:00 +26°C° 0 mm 3 m/s 742 mmHg 43%
12:00 +27°C° 0 mm 3 m/s 743 mmHg 37%
13:00 +27°C° 0 mm 3 m/s 742 mmHg 38%
14:00 +27°C° 0 mm 4 m/s 741 mmHg 38%
15:00 +27°C° 0 mm 4 m/s 741 mmHg 39%
16:00 +26°C° 0 mm 3 m/s 741 mmHg 47%
17:00 +24°C° 0 mm 3 m/s 741 mmHg 55%
18:00 +21°C° 0 mm 2 m/s 741 mmHg 63%
19:00 +20°C° 0 mm 2 m/s 741 mmHg 68%
20:00 +21°C° 0 mm 1 m/s 741 mmHg 72%
21:00 +20°C° 0 mm 1 m/s 741 mmHg 77%
22:00 +17°C° 0 mm 0 m/s 741 mmHg 78%
23:00 +17°C° 0 mm 0 m/s 741 mmHg 79%

Amanhã, 30 Setembro, Quarta-feira

Tempo Temperatura Precipitação Vento Pressão Humidade
00:00 +17°C° 0 mm 0 m/s 741 mmHg 80%
01:00 +16°C° 0 mm 0 m/s 741 mmHg 81%
02:00 +16°C° 0 mm 0 m/s 740 mmHg 83%
03:00 +16°C° 0 mm 0 m/s 740 mmHg 84%
04:00 +15°C° 0 mm 0 m/s 740 mmHg 84%
05:00 +15°C° 0 mm 0 m/s 740 mmHg 84%
06:00 +15°C° 0 mm 0 m/s 740 mmHg 83%
07:00 +17°C° 0 mm 0 m/s 740 mmHg 72%
08:00 +19°C° 0 mm 0 m/s 741 mmHg 61%
09:00 +22°C° 0 mm 0 m/s 741 mmHg 50%
10:00 +25°C° 0 mm 1 m/s 741 mmHg 44%
11:00 +26°C° 0 mm 1 m/s 741 mmHg 39%
12:00 +28°C° 0 mm 2 m/s 740 mmHg 33%
13:00 +28°C° 0 mm 2 m/s 740 mmHg 34%
14:00 +28°C° 0 mm 3 m/s 740 mmHg 35%
15:00 +28°C° 0 mm 3 m/s 739 mmHg 36%
16:00 +27°C° 0 mm 3 m/s 739 mmHg 44%
17:00 +25°C° 0 mm 2 m/s 739 mmHg 51%
18:00 +24°C° 0 mm 2 m/s 739 mmHg 58%
19:00 +23°C° 0 mm 1 m/s 739 mmHg 62%
20:00 +22°C° 0 mm 1 m/s 739 mmHg 66%
21:00 +22°C° 0 mm 1 m/s 739 mmHg 70%
22:00 +21°C° 0 mm 1 m/s 739 mmHg 72%
23:00 +21°C° 0 mm 1 m/s 738 mmHg 73%

Depois de amanhã, 1 Outubro, Quinta-feira

Tempo Temperatura Precipitação Vento Pressão Humidade
00:00 +18°C° 0 mm 0 m/s 738 mmHg 75%
01:00 +20°C° 0 mm 1 m/s 738 mmHg 73%
02:00 +20°C° 0 mm 1 m/s 737 mmHg 72%
03:00 +20°C° 0 mm 1 m/s 737 mmHg 71%
04:00 +19°C° 0 mm 1 m/s 737 mmHg 70%
05:00 +19°C° 0 mm 1 m/s 737 mmHg 69%
06:00 +19°C° 0 mm 1 m/s 737 mmHg 68%
07:00 +21°C° 0 mm 1 m/s 737 mmHg 56%
08:00 +24°C° 0 mm 2 m/s 737 mmHg 44%
09:00 +27°C° 0 mm 2 m/s 737 mmHg 33%
10:00 +28°C° 0 mm 3 m/s 737 mmHg 28%
11:00 +30°C° 0 mm 3 m/s 737 mmHg 24%
12:00 +33°C° 0 mm 4 m/s 736 mmHg 19%
13:00 +33°C° 0 mm 4 m/s 736 mmHg 19%
14:00 +33°C° 0 mm 4 m/s 735 mmHg 18%
15:00 +34°C° 0 mm 4 m/s 735 mmHg 18%
16:00 +30°C° 0 mm 3 m/s 734 mmHg 25%
17:00 +28°C° 0 mm 3 m/s 734 mmHg 31%
18:00 +26°C° 0 mm 3 m/s 734 mmHg 38%
19:00 +25°C° 0 mm 3 m/s 734 mmHg 38%
20:00 +25°C° 0 mm 3 m/s 734 mmHg 38%
21:00 +24°C° 0 mm 2 m/s 734 mmHg 38%
22:00 +24°C° 0 mm 3 m/s 734 mmHg 38%
23:00 +22°C° 0 mm 3 m/s 733 mmHg 37%

2 Outubro, Sexta-feira

Tempo Temperatura Precipitação Vento Pressão Humidade
00:00 +22°C° 0 mm 4 m/s 732 mmHg 37%
01:00 +21°C° 0 mm 3 m/s 732 mmHg 40%
02:00 +21°C° 0 mm 3 m/s 731 mmHg 43%
03:00 +20°C° 0 mm 3 m/s 731 mmHg 45%
04:00 +20°C° 0 mm 3 m/s 730 mmHg 48%
05:00 +19°C° 0 mm 3 m/s 730 mmHg 52%
06:00 +19°C° 0 mm 3 m/s 730 mmHg 55%
07:00 +20°C° 0 mm 4 m/s 730 mmHg 50%
08:00 +22°C° 0 mm 6 m/s 730 mmHg 46%
09:00 +23°C° 0 mm 7 m/s 730 mmHg 41%
10:00 +24°C° 0 mm 8 m/s 730 mmHg 38%
11:00 +26°C° 0 mm 9 m/s 729 mmHg 36%
12:00 +27°C° 0 mm 9 m/s 729 mmHg 34%
13:00 +27°C° 0 mm 10 m/s 728 mmHg 35%
14:00 +27°C° 0 mm 11 m/s 728 mmHg 37%
15:00 +27°C° 0 mm 12 m/s 727 mmHg 38%
16:00 +23°C° 0.4 mm 12 m/s 728 mmHg 46%
17:00 +21°C° 0.4 mm 11 m/s 728 mmHg 54%
18:00 +18°C° 0.4 mm 10 m/s 728 mmHg 62%
19:00 +18°C° 0.2 mm 10 m/s 729 mmHg 56%
20:00 +17°C° 0.2 mm 10 m/s 730 mmHg 50%
21:00 +17°C° 0.2 mm 10 m/s 730 mmHg 44%
22:00 +16°C° 0 mm 10 m/s 731 mmHg 44%
23:00 +14°C° 0 mm 10 m/s 731 mmHg 44%

3 Outubro, Sábado

Tempo Temperatura Precipitação Vento Pressão Humidade
00:00 +14°C° 0 mm 10 m/s 731 mmHg 44%
01:00 +13°C° 0 mm 10 m/s 731 mmHg 45%
02:00 +13°C° 0 mm 10 m/s 732 mmHg 46%
03:00 +12°C° 0 mm 10 m/s 732 mmHg 47%
04:00 +12°C° 0 mm 9 m/s 732 mmHg 49%
05:00 +11°C° 0 mm 8 m/s 733 mmHg 51%
06:00 +11°C° 0 mm 7 m/s 734 mmHg 54%
07:00 +12°C° 0 mm 7 m/s 734 mmHg 48%
08:00 +13°C° 0 mm 8 m/s 734 mmHg 42%
09:00 +15°C° 0 mm 8 m/s 735 mmHg 37%
10:00 +17°C° 0 mm 8 m/s 735 mmHg 33%
11:00 +18°C° 0 mm 8 m/s 735 mmHg 29%
12:00 +20°C° 0 mm 8 m/s 735 mmHg 25%
13:00 +21°C° 0 mm 8 m/s 735 mmHg 25%
14:00 +21°C° 0 mm 8 m/s 735 mmHg 24%
15:00 +21°C° 0 mm 8 m/s 734 mmHg 23%
16:00 +20°C° 0 mm 7 m/s 735 mmHg 26%
17:00 +19°C° 0 mm 5 m/s 735 mmHg 29%
18:00 +18°C° 0 mm 4 m/s 735 mmHg 32%
19:00 +17°C° 0 mm 3 m/s 735 mmHg 34%
20:00 +16°C° 0 mm 3 m/s 736 mmHg 36%
21:00 +16°C° 0 mm 3 m/s 736 mmHg 39%
22:00 +14°C° 0 mm 3 m/s 736 mmHg 39%
23:00 +15°C° 0 mm 2 m/s 736 mmHg 40%

4 Outubro, Domingo

Tempo Temperatura Precipitação Vento Pressão Humidade
00:00 +14°C° 0 mm 2 m/s 736 mmHg 40%
01:00 +14°C° 0 mm 2 m/s 735 mmHg 42%
02:00 +13°C° 0 mm 2 m/s 735 mmHg 45%
03:00 +13°C° 0 mm 1 m/s 735 mmHg 47%
04:00 +12°C° 0 mm 1 m/s 735 mmHg 47%
05:00 +12°C° 0 mm 1 m/s 735 mmHg 48%
06:00 +12°C° 0 mm 1 m/s 735 mmHg 49%
07:00 +14°C° 0 mm 2 m/s 735 mmHg 43%
08:00 +17°C° 0 mm 3 m/s 735 mmHg 37%
09:00 +19°C° 0 mm 3 m/s 735 mmHg 31%
10:00 +21°C° 0 mm 5 m/s 735 mmHg 32%
11:00 +22°C° 0 mm 6 m/s 735 mmHg 33%
12:00 +23°C° 0 mm 7 m/s 735 mmHg 35%
13:00 +23°C° 0 mm 8 m/s 735 mmHg 34%
14:00 +24°C° 0 mm 9 m/s 735 mmHg 34%
15:00 +24°C° 0 mm 10 m/s 734 mmHg 33%
16:00 +23°C° 0 mm 9 m/s 734 mmHg 36%
17:00 +21°C° 0 mm 8 m/s 734 mmHg 39%
18:00 +20°C° 0 mm 7 m/s 734 mmHg 42%
19:00 +20°C° 0 mm 6 m/s 735 mmHg 44%
20:00 +19°C° 0 mm 5 m/s 735 mmHg 46%
21:00 +18°C° 0 mm 4 m/s 736 mmHg 48%
22:00 +18°C° 0 mm 4 m/s 736 mmHg 49%
23:00 +17°C° 0 mm 4 m/s 736 mmHg 50%
Mostrar mais